CZ-6A DEB, 55195

Orbit data source: Space-Track

CZ-6A DEB, 55195 is space debris in SSO originally from a launch on Fri, 11 Nov 2022 UTC launched from the Taiyaun Space Center, China (TSC). Debris objects in space refer to the collection of defunct objects orbiting the Earth. Examples of debris include non-operational satellites, rocket bodies, and fragments generated from explosions, collisions, or faulty payload assembly.

Loading next visibility...
Identifier
55195, 2022-151VL
Orbit
SSO
Country
Flag of CNCN / PRC
Related business
Manufacturer
SAST
Mission
Spacecraft
Bus & Motor
Unknown
Mass
Unknown
Launch date (UTC)
2022-11-11 (4 years ago)
Launch vehicle
Unknown
Launch site
Taiyaun Space Center, China (TSC)
Object type
Payload
Rocket body
Debris
Shape & HBR
Unknown shape, 0.1 m
Radar Cross Section
Small (<0.1 m²)

Expand to show TLE details & history
Last TLE update: 20 hours ago

TLE from 20 hours ago
0 CZ-6A DEB
1 55195U 22151VL  26208.12223770  .00005838  00000-0  11646-2 0  9992
2 55195  98.6233 268.1388 0093617 181.9956 178.0883 14.59593069190465
Epoch: 2026-07-27T02:56Z
TLE epoch observation values (Epoch: 2026-07-27T02:56:01.337Z)
Latitude
0.00005°
Longitude
-80.67713°
Altitude
763.649 km
Speed
7.437 km/s
True Right ascension
17h 52m 33s
True Declination
0° 00' 00"
Sunlit
Object was in full shadow at epoch
Visualization orbit readout
Latitude
Unknown
Longitude
Unknown
Altitude
Unknown
Speed
Unknown
Apparent Right ascension
Unknown
Apparent Declination
Unknown
Sunlit
N/A
Visualization observer readout
Local Sidereal Time
12:22:14
Azimuth
Unknown
Elevation
Unknown
Doppler factor
Unknown
Orbital elements
Apogee altitude
757.774 km
Perigee altitude
625.405 km
Semi-major axis
7,069.727 km
Eccentricity
0.00936
Inclination
98.6233°
RAAN
268.1388°
Arg. of periapsis
181.9956°
True anomaly
178.12367°
Mean anomaly
178.0883°
Eccentric anomaly
178.10603°
Mean motion
3.65123 °/min
Orbital period
98.6 mins
BSTAR
0.0011646
Loading maneuver chart data...
Computing Atmospheric mass density...
Loading historical data...
Loading historical data...
Loading historical data...
Loading historical data...
Loading historical data...
Loading historical data...
Loading historical data...

Documentation

Showing up to 5 results
|